This is the latest recevied weather packets stored in our database for station/object WA4TPR. If no packets are shown the sender has not sent any weather packets the latest 1 day(s).
| Time | Temp. | Humidity | Pressure | Rain* | Wind** | Luminosity | Snow |
|---|---|---|---|---|---|---|---|
| 1778068248 | 21.11° C | 99% | 1020.6 hPa | 0 mm | - | 65 W/m² | - |
| 1778067945 | 21.11° C | 99% | 1020.5 hPa | 0 mm | - | 53 W/m² | - |
| 1778067341 | 20.56° C | 99% | 1020.3 hPa | 0 mm | - | 43 W/m² | - |
| 1778067038 | 20.56° C | 99% | 1020.1 hPa | 0 mm | - | 38 W/m² | - |
| 1778066432 | 20° C | 99% | 1019.9 hPa | 0 mm | - | 27 W/m² | - |
| 1778066130 | 20° C | 99% | 1020 hPa | 0 mm | - | 18 W/m² | - |
| 1778064615 | 20° C | 99% | 1019.9 hPa | 0 mm | - | 4 W/m² | - |
| 1778064011 | 20° C | 99% | 1019.7 hPa | 0 mm | - | 1 W/m² | - |
| 1778063103 | 20° C | 99% | 1019.6 hPa | 0 mm | - | 0 W/m² | - |
| 1778061288 | 20° C | 99% | 1019.6 hPa | 0 mm | - | 0 W/m² | - |
| 1778060983 | 20° C | 99% | 1019.8 hPa | 0 mm | - | 0 W/m² | - |
| 1778060682 | 20° C | 99% | 1019.6 hPa | 0 mm | - | 0 W/m² | - |
| 1778059775 | 20° C | 99% | 1019.7 hPa | 0 mm | - | 0 W/m² | - |
| 1778059169 | 20° C | 99% | 1019.5 hPa | 0 mm | - | 0 W/m² | - |
| 1778058564 | 20° C | 99% | 1019.5 hPa | 0 mm | - | 0 W/m² | - |
| 1778057958 | 20° C | 99% | 1019.6 hPa | 0 mm | - | 0 W/m² | - |
| 1778057655 | 20° C | 99% | 1019.4 hPa | 0 mm | - | 0 W/m² | - |
| 1778057351 | 20° C | 99% | 1019.5 hPa | 0 mm | - | 0 W/m² | - |
| 1778057048 | 20° C | 99% | 1019.4 hPa | 0 mm | - | 0 W/m² | - |
| 1778056442 | 20° C | 99% | 1019.4 hPa | 0 mm | - | 0 W/m² | - |
| 1778055531 | 20° C | 98% | 1019.6 hPa | 0 mm | - | 0 W/m² | - |
| 1778055230 | 20° C | 98% | 1019.4 hPa | 0 mm | - | 0 W/m² | - |
| 1778054624 | 20° C | 98% | 1019.6 hPa | 0 mm | - | 0 W/m² | - |
| 1778054322 | 20° C | 98% | 1019.4 hPa | 0 mm | - | 0 W/m² | - |
| 1778054019 | 20° C | 98% | 1019.6 hPa | 0 mm | - | 0 W/m² | - |
* Rain latest hour (hover to see other rain measurements)
** Current wind speed in m/s (hover to see current wind gust speed)